KPCM

Details ICAO KPCM
Name Plant City Muni
Region United States
Timezone America/New_York (UTC-4.0)
Plans Departing 4
Arriving 2
Stats Elevation 154 ft / 47 m (AMSL)
Location 28.000156° -82.163311°
Runways 1
Magnetic Variation 5.838° W
Sunrise 2018-05-21 10:37:25 UTC / 2018-05-21 06:37:25 Local
Sunset 2018-05-22 00:15:58 UTC / 2018-05-21 20:15:58 Local
Advertisement - Login to hide

Runways

ID Width Length Bearing (true) Bearing (mag) Surface Threshold Offset Overrun Length
10 75 ft / 23 m 3,944 ft / 1,202 m 94.24° 100.08° Asphalt 200 ft / 61 m 0 ft / 0 m
28 75 ft / 23 m 3,944 ft / 1,202 m 274.25° 280.09° Asphalt 0 ft / 0 m 0 ft / 0 m

Map

Weather


0- 5 10 15 20 25 30 35+ Temperature / ° C

Clouds and Precipitation
Forecast for 2018-05-21 12:00 UTC. Updated 7 minutes ago

Ground ~20,000 ft ~40,000 ft Winds

METAR

KPCM 210915Z AUTO 08003KT 10SM BKN070 OVC090 22/21 A3005 RMK AO2

TAF

Not found

Frequencies

Recorded 120.02 MHz AWOS 3
Approach 120.65 MHz TAMPA APP/DEP
Unicom 123.00 MHz CTAF/UNICOM
Approach 119.90 MHz TAMPA APP/DEP
Warning: Do not use this data for real-world aviation or navigation. No guarantee of current accuracy is given.